User: anonymous   Login
Location: Belfast
(54.5830°N, 5.9330°W)
Time: 07:34:04
(UTC+01:00)
Language:

ISS - Orbit

View from above orbital plane
View from above orbital plane
View from above satellite
View from above satellite

Ground track
Ground track

The orbit data is extracted from the following two-line orbital elements,

1 25544U 98067A   17148.55058288  .00016717  00000-0  10270-3 0  9021
2 25544  51.6369 136.2017 0004829 206.2859 153.8049 15.53924932 18694
Epoch (UTC): 28 May 2017 13:12:50
Eccentricity: 0.0004829
inclination: 51.6369°
perigee height: 402 km
apogee height: 408 km
right ascension of ascending node: 136.2017°
argument of perigee: 206.2859°
revolutions per day: 15.53924932
mean anomaly at epoch: 153.8049°
orbit number at epoch: 1869

The dashed part of the orbit path shows where the satellite is in the earth's shadow,  

DLR